"Pseudo-MPEC" for C02DDQ2

Created 2019 Jan 14 12:18:09 UT using Find_Orb

Click here for an explanation of pseudo-MPECs

 
 Astrometry: 
     C02DDQ2  C2018 12 319BbZ!fM5F)5P+Astrometry\Q17egrbl9R/`7+QP'm0(Y7r%t-/YF51
     C02DDQ2  C2018 12 31-_5oQN!;58@C(4S0GE\M?i6y3QDH0VUpk$!t%/q=):E=H/emll25F51
     C02DDQ2  C2019 01 12.46552 10 12 55.17 -09 05 35.8    ~1CCI 20.0 GVNEOCPG96
     C02DDQ2  C2019 01 12.47065 10 12 55.49 -09 05 03.0    ~1CCI 19.4 GVNEOCPG96
     C02DDQ2  C2019 01 12.47579 10 12 55.73 -09 04 28.1    ~1CCI 19.7 GVNEOCPG96
     C02DDQ2  C2019 01 12.48092 10 12 55.93 -09 03 54.9    ~1CCI 19.9 GVNEOCPG96
     C02DDQ2 KC2019 01 12D@Y:1];+Xn4OxNNov]ZC)0?cuuv_@%3Z6KPvgbD!7redacted;B*474
     C02DDQ2 KC2019 01 12,-4%pcTFHTAMBUm+nZm86^5@I'T-XfnFEdye2.,:P;2CGZ#:LmSa474
     C02DDQ2 KC2019 01 12Hx!mqeG\QUBE_]1(^k_SrS,3@bVby:=G8o/]pEhKclickAhdYSlq474
     C02DDQ2 KC2019 01 12*Ys:urT8sG0B0m806=QX'd1M60Y`'qq2*Dp[C(Of8vXHfvTDWrV+474
     C02DDQ2  C2019 01 12.53491 10 12 58.60 -08 58 00.6    ~1CDI 20.4 GVNEOCPI52
     C02DDQ2  C2019 01 12.53533 10 12 58.71 -08 57 58.2    ~1CDI 20.5 GVNEOCPI52
     C02DDQ2  C2019 01 12.53575 10 12 58.70 -08 57 55.7    ~1CDI 21.4 GVNEOCPI52
     C02DDQ2  C2019 01 12.54645 10 12 59.26 -08 56 44.6    ~1CEI 19.9 GVNEOCPI52
     C02DDQ2  C2019 01 12.54686 10 12 59.35 -08 56 41.8    ~1CEI 20.3 GVNEOCPI52
     C02DDQ2  C2019 01 12.54728 10 12 59.27 -08 56 39.3    ~1CEI 19.4 GVNEOCPI52
     C02DDQ2  C2019 01 12.54770 10 12 59.29 -08 56 36.4    ~1CEI 20.9 GVNEOCPI52
     C02DDQ2 |C2019 01 13t4t:ThOr1W!QpR0r,L==yMH-mfVoVP)*Hx^6M0+2SUchere'6I.S807
     C02DDQ2 |C2019 01 130KC@U'JX%bnRrJ7^$FA(9E6F2w'UkUepx+%/^^q,kDW(([)_V1R!807
     C02DDQ2 KC2019 01 13i4b:gn@FW$_)0PMg2/oHYfor4'-YfEIU-cvU)v3a[q1C_xR;mUtNL29
     C02DDQ2 KC2019 01 13)0l8q/4'l0nSldJW-cU9%InSwX,t'O#7A;cP)DB:8u`=ccMVBv%vL29
     C02DDQ2 KC2019 01 13c51**N54rW(0-hf-+)JX:m.?explanationi5V[Ig!fgJa;_u4qWL29

Station data:
(474) Mount John Observatory, Lake Tekapo  (S43.987388 E170.464960)  New
   Zealand.  Observers A. C. Gilmore, P. M. Kilmartin. Measurer P. M.
   Kilmartin. 1.0-m f/7.7 reflector + CCD.
(807) Cerro Tololo Observatory, La Serena  (S30.169136 W70.805900)  Chile.
   1.5-m Ritchey-Chrétien.
(F51) Pan-STARRS 1, Haleakala  (N20.707235 W156.255910)  US/Hawaii.
   Observers N. Primak, A. Schultz, S. Watters, J. Thiel, T. Goggia. Measurer
   PS1 Science Consortium. 1.8-m Ritchey-Chrétien + CCD.
(G96) Mt. Lemmon Survey  (N32.442754 W110.788720)  US/Arizona.  Observers B.
   M. Africano, E. J. Christensen, G. A. Farneth, D. C. Fuls, A. R. Gibbs, A.
   D. Grauer, H. Groeller, J. A. Johnson, R. A. Kowalski, S. M. Larson, G. J.
   Leonard, R. L. Seaman, F. C. Shelly. 1.5-m reflector + 10K CCD.
(I52) Steward Observatory, Mt. Lemmon Station  (N32.442547 W110.788920)
   US/Arizona.  Observers B. M. Africano, E. J. Christensen, G. A. Farneth,
   D. C. Fuls, A. R. Gibbs, A. D. Grauer, H. Groeller, J. A. Johnson, R. A.
   Kowalski, S. M. Larson, G. J. Leonard, R. L. Seaman, F. C. Shelly. 1.0-m
   reflector + CCD.
(L29) Drebach-South Observatory, Windhoek  (S23.460102 E18.016900)  Namibia.

Orbital elements:  C02DDQ2
   Perihelion 2019 Feb 27.570229 +/- 0.204 TT = 13:41:07 (JD 2458542.070229)
Epoch 2019 Jan 13.0 TT = JDT 2458496.5   Earth MOID: 0.2283   AutoNEOCP
M 339.85045665 +/- 0.24             (J2000 ecliptic)
n   0.44216462 +/- 0.00337          Peri.   33.23871 +/- 0.16
a   1.70639690 +/- 0.00866          Node   126.73196 +/- 0.012
e   0.3148363 +/- 0.00312           Incl.   54.08225 +/- 0.10
P   2.23/814.16d           H 20.7   G  0.15   U  8.9  
q 1.16916107 +/- 0.000618    Q 2.24363273 +/- 0.0169
From 22 observations 2018 Dec. 31-2019 Jan. 13; mean residual 0".50
Residuals in arcseconds: 
181231 F51  .05-  .02-    190112 474  .27-  .05-    190112 I52  .49-  .18+    
181231 F51  .02+  .02+    190112 474  .47-  .08+    190113 807  .49+  .26-    
190112 G96  .15-  .06+    190112 I52  .96-  .18+    190113 807  .33+  .29-    
190112 G96  .83+  .68-    190112 I52  .35+  .18-    190113 L29  .51+  .90-    
190112 G96  .61+  .59+    190112 I52  .12-  .44-    190113 L29  1.4-  1.4+    
190112 G96  .20-  .22+    190112 I52  .02+  .22+    190113 L29  .28+  .11-    
190112 474  .02-  .07+    190112 I52  1.0+  .32+    
190112 474  .22-  .19-    190112 I52  .47-  .05+    

Ephemerides (geocentric):
Date (UTC) HH   RA              Dec         delta   r     elong  mag " sig PA
---- -- -- --  -------------   -----------  ------ ------ -----  --- ---- ---
2019 01 14 12  10 14 53.946   -05 05 41.79  .32408 1.2318 134.3 20.2 .515  89
2019 01 14 13  10 14 56.371   -05 00 23.51  .32361 1.2317 134.3 20.2 .532  88
2019 01 14 14  10 14 58.796   -04 55 04.23  .32314 1.2316 134.4 20.2 .548  88
2019 01 14 15  10 15 01.221   -04 49 43.95  .32267 1.2314 134.5 20.2 .565  88
2019 01 14 16  10 15 03.647   -04 44 22.67  .32220 1.2313 134.6 20.2 .582  88
2019 01 14 17  10 15 06.072   -04 39 00.38  .32173 1.2312 134.7 20.1 .599  88
2019 01 14 18  10 15 08.498   -04 33 37.08  .32127 1.2311 134.8 20.1 .616  88
2019 01 14 19  10 15 10.923   -04 28 12.78  .32080 1.2310 134.8 20.1 .633  88
2019 01 14 20  10 15 13.349   -04 22 47.46  .32033 1.2309 134.9 20.1 .651  88
2019 01 14 21  10 15 15.775   -04 17 21.13  .31987 1.2308 135.0 20.1 .668  88
2019 01 14 22  10 15 18.201   -04 11 53.78  .31941 1.2307 135.1 20.1 .686  88
2019 01 14 23  10 15 20.627   -04 06 25.41  .31895 1.2305 135.2 20.1 .704  88
2019 01 15 00  10 15 23.054   -04 00 56.02  .31849 1.2304 135.3 20.1 .722  88
2019 01 15 01  10 15 25.480   -03 55 25.61  .31803 1.2303 135.4 20.1 .740  88
2019 01 15 02  10 15 27.907   -03 49 54.17  .31757 1.2302 135.4 20.1 .758  88
2019 01 15 03  10 15 30.334   -03 44 21.70  .31711 1.2301 135.5 20.1 .776  88
2019 01 15 04  10 15 32.761   -03 38 48.20  .31665 1.2300 135.6 20.1 .795  88
2019 01 15 05  10 15 35.188   -03 33 13.67  .31619 1.2299 135.7 20.1 .813  88
2019 01 15 06  10 15 37.616   -03 27 38.10  .31574 1.2298 135.8 20.1 .832  88
2019 01 15 07  10 15 40.044   -03 22 01.49  .31528 1.2297 135.9 20.1 .851  88
2019 01 15 08  10 15 42.472   -03 16 23.85  .31483 1.2295 136.0 20.1 .870  88
2019 01 15 09  10 15 44.900   -03 10 45.16  .31438 1.2294 136.0 20.1 .889  87
2019 01 15 10  10 15 47.328   -03 05 05.43  .31393 1.2293 136.1 20.1 .908  87
2019 01 15 11  10 15 49.757   -02 59 24.66  .31348 1.2292 136.2 20.1 .928  87
2019 01 15 12  10 15 52.186   -02 53 42.83  .31303 1.2291 136.3 20.1 .947  87
2019 01 15 13  10 15 54.615   -02 47 59.96  .31258 1.2290 136.4 20.1 .967  87
2019 01 15 14  10 15 57.044   -02 42 16.03  .31213 1.2289 136.5 20.0 .987  87
2019 01 15 15  10 15 59.474   -02 36 31.05  .31168 1.2288 136.6 20.0 1.01  87
2019 01 15 16  10 16 01.904   -02 30 45.01  .31124 1.2287 136.7 20.0 1.03  87
2019 01 15 17  10 16 04.334   -02 24 57.91  .31079 1.2286 136.7 20.0 1.05  87
2019 01 15 18  10 16 06.764   -02 19 09.75  .31035 1.2284 136.8 20.0 1.07  87
2019 01 15 19  10 16 09.195   -02 13 20.53  .30991 1.2283 136.9 20.0 1.09  87
2019 01 15 20  10 16 11.626   -02 07 30.24  .30946 1.2282 137.0 20.0 1.11  87
2019 01 15 21  10 16 14.057   -02 01 38.89  .30902 1.2281 137.1 20.0 1.13  87
2019 01 15 22  10 16 16.489   -01 55 46.47  .30858 1.2280 137.2 20.0 1.15  87
2019 01 15 23  10 16 18.921   -01 49 52.97  .30815 1.2279 137.3 20.0 1.17  86
2019 01 16 00  10 16 21.353   -01 43 58.41  .30771 1.2278 137.4 20.0 1.19  86
2019 01 16 01  10 16 23.785   -01 38 02.77  .30727 1.2277 137.4 20.0 1.21  86
2019 01 16 02  10 16 26.218   -01 32 06.05  .30684 1.2276 137.5 20.0 1.24  86
2019 01 16 03  10 16 28.651   -01 26 08.25  .30640 1.2275 137.6 20.0 1.26  86
2019 01 16 04  10 16 31.085   -01 20 09.37  .30597 1.2274 137.7 20.0 1.28  86
2019 01 16 05  10 16 33.519   -01 14 09.41  .30553 1.2272 137.8 20.0 1.30  86
2019 01 16 06  10 16 35.953   -01 08 08.37  .30510 1.2271 137.9 20.0 1.32  86
2019 01 16 07  10 16 38.388   -01 02 06.24  .30467 1.2270 138.0 20.0 1.35  86
2019 01 16 08  10 16 40.823   -00 56 03.02  .30424 1.2269 138.1 20.0 1.37  86
2019 01 16 09  10 16 43.258   -00 49 58.71  .30382 1.2268 138.1 20.0 1.39  86
2019 01 16 10  10 16 45.694   -00 43 53.32  .30339 1.2267 138.2 19.9 1.41  86
2019 01 16 11  10 16 48.130   -00 37 46.82  .30296 1.2266 138.3 19.9 1.44  85